Flight Track Log - Related Links

Times and Time Zones

All times are in EDT time to prevent confusion due to time zone crossing. See the CTL61 flight status page for this flight to view local times or setup timezone preferences in your user account.

Time Position Orientation Groundspeed Altitude Reporting Facility
EDT Latitude Longitude Course Direction KTS MPH feet Rate Location/Type
Mon 11:13:30 PM 37.2931 -81.2442 350° North 143 165 4,000  Level Indianapolis Center
Mon 11:14:31 PM 37.3344 -81.2536 350° North 139 160 5,200 1,073 Climbing Indianapolis Center
Mon 11:15:33 PM 37.3714 -81.2650 346° North 140 161 6,200 829 Climbing Indianapolis Center
Mon 11:16:34 PM 37.4044 -81.2742 348° North 129 148 6,900 344 Climbing Indianapolis Center
Mon 11:17:35 PM 37.4425 -81.2875 344° North 136 157 6,900  Level Indianapolis Center
Mon 11:18:36 PM 37.4917 -81.3017 347° North 171 197 6,900  Level Indianapolis Center
Mon 11:19:37 PM 37.5439 -81.3172 347° North 166 191 6,900 -49 Level Indianapolis Center
Mon 11:20:39 PM 37.5889 -81.3311 346° North 168 193 6,800 -195 Descending Indianapolis Center
Mon 11:21:40 PM 37.6350 -81.3447 347° North 172 198 6,500 -344 Descending Indianapolis Center
Mon 11:22:41 PM 37.6825 -81.3628 343° North 180 207 6,100 -295 Descending Indianapolis Center
Mon 11:23:42 PM 37.7319 -81.3778 347° North 187 215 5,900 -295 Descending Indianapolis Center
Mon 11:24:43 PM 37.7864 -81.3958 345° North 176 203 5,500 -344 Descending Indianapolis Center
Mon 11:25:44 PM 37.8386 -81.4144 344° North 185 213 5,200 -293 Descending Indianapolis Center
Mon 11:26:46 PM 37.8889 -81.4311 345° North 185 213 4,900 -195 Descending Indianapolis Center
Mon 11:27:47 PM 37.9386 -81.4464 346° North 184 212 4,800 -49 Descending Indianapolis Center
Mon 11:28:48 PM 37.9864 -81.4625 345° North 179 206 4,800  Level Indianapolis Center
Mon 11:29:49 PM 38.0344 -81.4792 345° North 177 204 4,800 -148 Level Indianapolis Center
Mon 11:30:50 PM 38.0833 -81.4953 345° North 182 209 4,500 -344 Descending Indianapolis Center
Mon 11:31:51 PM 38.1361 -81.5133 345° North 192 221 4,100 -492 Descending Indianapolis Center
Mon 11:32:52 PM 38.1889 -81.5314 345° North 194 223 3,500 -590 Descending Indianapolis Center
Mon 11:33:53 PM 38.2453 -81.5494 346° North 202 232 2,900 -541 Descending Indianapolis Center
Mon 11:34:54 PM 38.3006 -81.5731 341° North 207 238 2,400 -344 Descending Indianapolis Center
Mon 11:35:55 PM 38.3483 -81.5742 359° North 189 217 2,200 -393 Descending Indianapolis Center
Mon 11:36:56 PM 38.3869 -81.5464 29° Northeast 151 174 1,600 -443 Descending Indianapolis Center
Mon 11:37:57 PM 38.3925 -81.5722 285° West 131 151 1,300 -295 Descending Indianapolis Center
Mon 11:39:00 PM 38.3667 -81.5833 North  Level FlightAware Approximate

Login

Don't have an account? Register now (free) for customized features, flight alerts, and more!